TimeGMT,TemperatureF,Dew PointF,Humidity,Sea Level PressureIn,VisibilityMPH,Wind Direction,Wind SpeedMPH,Gust SpeedMPH,PrecipitationIn,Events,Conditions,WindDirDegrees,DateUTC
12:20 AM,48.2,42.8,82,29.62,6.2,South,11.5,-,N/A,,Scattered Clouds,180,2012-11-22 00:20:00
12:50 AM,48.2,42.8,82,29.59,6.2,SSW,10.4,-,N/A,,Scattered Clouds,200,2012-11-22 00:50:00
1:20 AM,48.2,42.8,82,29.59,6.2,South,10.4,-,N/A,,Partly Cloudy,190,2012-11-22 01:20:00
1:50 AM,50.0,44.6,82,29.59,6.2,SSW,15.0,-,N/A,,Mostly Cloudy,210,2012-11-22 01:50:00
2:20 AM,50.0,44.6,82,29.59,6.2,SSW,11.5,-,N/A,,Scattered Clouds,200,2012-11-22 02:20:00
2:50 AM,50.0,44.6,82,29.56,6.2,SSE,10.4,-,N/A,,Mostly Cloudy,160,2012-11-22 02:50:00
3:20 AM,50.0,44.6,82,29.56,6.2,SSE,5.8,-,N/A,,Overcast,150,2012-11-22 03:20:00
3:50 AM,50.0,44.6,82,29.53,6.2,SSE,6.9,-,N/A,,Overcast,160,2012-11-22 03:50:00
4:20 AM,50.0,44.6,82,29.53,6.2,South,16.1,-,N/A,,Scattered Clouds,190,2012-11-22 04:20:00
4:50 AM,50.0,44.6,82,29.50,6.2,South,15.0,-,N/A,,Scattered Clouds,180,2012-11-22 04:50:00
5:20 AM,50.0,44.6,82,29.50,6.2,South,13.8,-,N/A,,Scattered Clouds,190,2012-11-22 05:20:00
5:50 AM,51.8,44.6,76,29.47,6.2,South,12.7,-,N/A,,Scattered Clouds,180,2012-11-22 05:50:00
6:20 AM,51.8,44.6,76,29.44,6.2,South,15.0,26.5,N/A,,Mostly Cloudy,180,2012-11-22 06:20:00
6:50 AM,51.8,44.6,76,29.42,6.2,South,18.4,-,N/A,,Mostly Cloudy,190,2012-11-22 06:50:00
7:20 AM,53.6,44.6,72,29.42,6.2,South,20.7,32.2,N/A,,Mostly Cloudy,190,2012-11-22 07:20:00
7:50 AM,53.6,44.6,72,29.39,6.2,South,18.4,29.9,N/A,,Mostly Cloudy,180,2012-11-22 07:50:00
8:20 AM,53.6,44.6,72,29.39,5.0,South,25.3,48.3,N/A,Rain,Light Rain Showers,190,2012-11-22 08:20:00
8:50 AM,51.8,46.4,82,29.36,6.2,SSW,24.2,-,N/A,Rain,Light Rain Showers,200,2012-11-22 08:50:00
9:20 AM,51.8,46.4,82,29.36,6.2,SSW,24.2,-,N/A,Rain,Light Rain Showers,200,2012-11-22 09:20:00
9:50 AM,51.8,46.4,82,29.36,3.7,SW,17.3,-,N/A,Rain,Light Rain,220,2012-11-22 09:50:00
10:20 AM,51.8,48.2,88,29.36,5.0,SW,17.3,-,N/A,Rain,Light Rain,220,2012-11-22 10:20:00
10:50 AM,51.8,48.2,88,29.33,4.3,SSW,12.7,-,N/A,Rain,Rain,210,2012-11-22 10:50:00
11:20 AM,46.4,44.6,93,29.36,5.0,SW,11.5,-,N/A,Rain,Light Rain,220,2012-11-22 11:20:00
11:50 AM,46.4,44.6,93,29.33,5.6,SW,9.2,-,N/A,Rain,Light Rain,220,2012-11-22 11:50:00
12:20 PM,46.4,44.6,93,29.33,5.0,SSW,9.2,-,N/A,Rain,Light Rain,210,2012-11-22 12:20:00
12:50 PM,44.6,42.8,93,29.36,5.0,WSW,15.0,-,N/A,Rain,Light Rain,240,2012-11-22 12:50:00
1:20 PM,44.6,41.0,87,29.36,6.2,WSW,12.7,-,N/A,Rain,Light Rain,240,2012-11-22 13:20:00
1:50 PM,44.6,41.0,87,29.33,6.2,SW,10.4,-,N/A,Rain,Light Rain,220,2012-11-22 13:50:00
2:20 PM,42.8,39.2,87,29.33,6.2,South,9.2,-,N/A,Rain,Light Rain,190,2012-11-22 14:20:00
2:50 PM,42.8,39.2,87,29.30,5.6,South,10.4,-,N/A,Rain,Light Rain,180,2012-11-22 14:50:00
3:20 PM,42.8,39.2,87,29.30,5.0,South,10.4,-,N/A,Rain,Light Rain,190,2012-11-22 15:20:00
3:50 PM,41.0,39.2,93,29.30,6.2,South,6.9,-,N/A,Rain,Light Rain,180,2012-11-22 15:50:00
4:20 PM,41.0,39.2,93,29.30,6.2,South,9.2,-,N/A,Rain,Light Rain,190,2012-11-22 16:20:00
4:50 PM,41.0,37.4,87,29.27,6.2,SSW,9.2,-,N/A,Rain,Light Rain,200,2012-11-22 16:50:00
5:20 PM,41.0,37.4,87,29.30,6.2,SSW,11.5,-,N/A,Rain,Light Rain,210,2012-11-22 17:20:00
5:50 PM,41.0,37.4,87,29.30,6.2,SW,10.4,-,N/A,Rain,Light Rain,220,2012-11-22 17:50:00
6:20 PM,41.0,37.4,87,29.30,6.2,SSW,9.2,-,N/A,Rain,Light Rain,200,2012-11-22 18:20:00
6:50 PM,41.0,37.4,87,29.30,-9999.0,SSW,11.5,-,N/A,,Clear,200,2012-11-22 18:50:00
7:20 PM,42.8,37.4,81,29.30,-9999.0,SSW,11.5,-,N/A,,Clear,210,2012-11-22 19:20:00
7:50 PM,42.8,37.4,81,29.30,-9999.0,SSW,13.8,-,N/A,,Clear,210,2012-11-22 19:50:00
8:20 PM,42.8,37.4,81,29.30,-9999.0,SSW,16.1,-,N/A,,Clear,200,2012-11-22 20:20:00
8:50 PM,42.8,37.4,81,29.30,6.2,SW,11.5,-,N/A,,Scattered Clouds,220,2012-11-22 20:50:00
9:20 PM,42.8,37.4,81,29.33,6.2,SSW,10.4,-,N/A,,Partly Cloudy,210,2012-11-22 21:20:00
9:50 PM,42.8,37.4,81,29.33,6.2,SSW,13.8,-,N/A,,Partly Cloudy,210,2012-11-22 21:50:00
10:20 PM,42.8,37.4,81,29.30,-9999.0,SSW,8.1,-,N/A,,Clear,210,2012-11-22 22:20:00
10:50 PM,42.8,37.4,81,29.30,-9999.0,SSW,8.1,-,N/A,,Clear,210,2012-11-22 22:50:00
11:20 PM,44.6,37.4,76,29.30,6.2,SW,10.4,-,N/A,,Partly Cloudy,220,2012-11-22 23:20:00
11:50 PM,44.6,37.4,76,29.30,6.2,SSW,15.0,-,N/A,,Partly Cloudy,210,2012-11-22 23:50:00